Weather History for Iron Mountain, MI

Change the Weather History Date:

Wednesday, January 23, 2013

  Actual Average Record
Temperature  
Mean Temperature 0 °F -  
Max Temperature 9 °F 28 °F 46 °F (1967)
Min Temperature -8 °F 7 °F -30 °F (1963)
Degree Days  
Heating Degree Days 64    
Moisture  
Dew Point -5 °F    
Average Humidity 70    
Maximum Humidity 80    
Minimum Humidity 62    
Precipitation  
Precipitation 0.00 in - - ()
Sea Level Pressure  
Sea Level Pressure 30.14 in    
Wind  
Wind Speed 8 mph (WNW)    
Max Wind Speed 17 mph    
Max Gust Speed 24 mph    
Visibility 7 miles    
Events Snow    
Averages and records for this station are not official NWS values.
T = Trace of Precipitation, MM = Missing Value Source: NWS Daily Summary

Daily Weather History Graph

Daily Weather History Graph

Search for Another Location

Airport:

Trip Planner

Search our weather history database for the weather conditions in past years. The results will help you decide how hot, cold, wet, or windy it might be!

Date:

Astronomy

Jan. 23, 2013 Rise Set
Actual Time 7:23 AM CST 4:45 PM CST
Civil Twilight 6:50 AM CST 5:18 PM CST
Nautical Twilight 6:14 AM CST 5:54 PM CST
Astronomical Twilight 5:39 AM CST 6:29 PM CST
Moon 1:53 PM CST (1/23) 4:37 AM CST (1/23)
Length of Visible Light 10h 27m
Length of Day
9h 22m
Waxing Gibbous, 89% of the Moon is Illuminated
Jan 23
Waxing Gibbous
Jan 26
Full
Feb 3
Last Quarter
Feb 10
New
Feb 17
First Quarter

Hourly Weather History & Observations

Time (CST) Temp. Windchill Dew Point Humidity Pressure Visibility Wind Dir Wind Speed Gust Speed Precip Events Conditions
2:54 AM -8.0 °F -19.2 °F -17.0 °F 65% 30.22 in 10.0 mi NW 4.6 mph - N/A   Clear
3:54 AM -8.0 °F -19.2 °F -16.1 °F 68% 30.20 in 10.0 mi Variable 4.6 mph - N/A   Clear
4:54 AM -8.0 °F -22.5 °F -15.0 °F 71% 30.19 in 10.0 mi WNW 6.9 mph - N/A   Clear
5:54 AM -8.0 °F - -15.0 °F 71% 30.17 in 10.0 mi Calm Calm - N/A   Mostly Cloudy
6:54 AM -7.1 °F - -14.1 °F 72% 30.17 in 10.0 mi Calm Calm - N/A   Overcast
7:54 AM -6.0 °F -14.7 °F -14.1 °F 68% 30.15 in 10.0 mi West 3.5 mph - N/A   Overcast
8:54 AM -4.0 °F -19.0 °F -13.0 °F 65% 30.14 in 10.0 mi NW 8.1 mph - N/A   Overcast
9:54 AM -0.9 °F -15.3 °F -11.0 °F 62% 30.14 in 10.0 mi West 8.1 mph - N/A   Scattered Clouds
10:12 AM -0.4 °F -15.7 °F -9.4 °F 66% 30.04 in 8.0 mi WNW 9.2 mph - N/A   Mostly Cloudy
10:45 AM 1.4 °F -12.5 °F -7.6 °F 66% 30.02 in 10.0 mi West 8.1 mph - N/A   Overcast
10:54 AM 1.9 °F -12.9 °F -7.1 °F 66% 30.13 in 9.0 mi West 9.2 mph - N/A   Overcast
11:54 AM 5.0 °F -8.1 °F -4.0 °F 66% 30.09 in 10.0 mi West 8.1 mph - N/A   Overcast
12:54 PM 7.0 °F -6.6 °F -2.0 °F 67% 30.06 in 6.0 mi West 9.2 mph - N/A   Haze
1:54 PM 9.0 °F -5.9 °F -0.0 °F 67% 30.06 in 4.0 mi WNW 11.5 mph 16.1 mph 0.00 in   Haze
2:39 PM 8.6 °F -5.5 °F 1.4 °F 73% 29.98 in 2.0 mi WNW 10.4 mph - 0.00 in Snow Light Snow
2:51 PM 8.6 °F -4.7 °F 1.4 °F 73% 29.98 in 1.8 mi WNW 9.2 mph - 0.00 in Snow Light Snow
2:54 PM 9.0 °F -5.1 °F 1.0 °F 70% 30.09 in 1.5 mi WNW 10.4 mph - 0.00 in Snow Light Snow
3:14 PM 8.6 °F -4.7 °F 1.4 °F 73% 29.99 in 3.0 mi West 9.2 mph - 0.00 in Snow Light Snow
3:24 PM 8.6 °F -5.5 °F -0.4 °F 67% 29.99 in 9.0 mi WNW 10.4 mph - 0.00 in   Overcast
3:54 PM 9.0 °F -6.6 °F -0.0 °F 67% 30.11 in 6.0 mi WNW 12.7 mph 20.7 mph 0.00 in   Haze
4:14 PM 8.6 °F -6.3 °F 1.4 °F 73% 30.03 in 2.5 mi WNW 11.5 mph 19.6 mph 0.00 in Snow Light Snow
4:33 PM 8.6 °F -6.3 °F 1.4 °F 73% 30.04 in 3.0 mi WNW 11.5 mph - 0.00 in Snow Light Snow
4:40 PM 8.6 °F -3.7 °F 1.4 °F 73% 30.04 in 1.8 mi NW 8.1 mph - 0.00 in Snow Light Snow
4:54 PM 8.1 °F -3.2 °F 3.0 °F 80% 30.16 in 1.0 mi NW 6.9 mph - 0.00 in Snow Light Snow
5:04 PM 8.6 °F -3.7 °F 1.4 °F 73% 30.06 in 3.0 mi NW 8.1 mph - 0.00 in   Haze
5:11 PM 6.8 °F -7.8 °F 1.4 °F 79% 30.07 in 5.0 mi NW 10.4 mph - 0.00 in   Haze
5:44 PM 6.8 °F -7.8 °F 1.4 °F 79% 30.09 in 7.0 mi NW 10.4 mph - 0.00 in   Mostly Cloudy
5:51 PM 6.8 °F -7.8 °F -0.4 °F 72% 30.10 in 10.0 mi NNW 10.4 mph - 0.00 in   Mostly Cloudy
5:54 PM 6.1 °F -7.8 °F -0.0 °F 76% 30.21 in 10.0 mi NNW 9.2 mph - 0.00 in   Scattered Clouds
6:54 PM 5.0 °F -12.3 °F -4.0 °F 66% 30.27 in 10.0 mi NW 13.8 mph - N/A   Clear
7:54 PM 3.0 °F -16.1 °F -5.1 °F 69% 30.32 in 10.0 mi NW 16.1 mph - N/A   Clear
8:54 PM 1.9 °F -16.2 °F -6.0 °F 69% 30.36 in 10.0 mi NW 13.8 mph - N/A   Clear
9:54 PM 1.0 °F -17.3 °F -7.1 °F 69% 30.38 in 10.0 mi NNW 13.8 mph - N/A   Clear
10:54 PM 1.0 °F -19.3 °F -7.1 °F 69% 30.41 in 10.0 mi NNW 17.3 mph 24.2 mph N/A   Clear
11:54 PM -0.0 °F -19.4 °F -8.0 °F 69% 30.45 in 10.0 mi NW 15.0 mph - N/A   Clear